Погода в Эркешеве

Россия / Удмуртская Республика     58°03′38″N   53°11′14″E
темп.,
°C
ветер,
м/с
пор.,
м/с
влажн.,
%
обл.,
%
осадки,
мм/ч
давл.,
гПа
погр.,
м
13 мая, чт
чт1301:00+15вюв11674 0.0 102710
04:00+14юв00769 0.0 102710
07:00+18вюв126212 0.0 1027143
10:00+24юв234331 0.0 1026746
13:00+27ю33320 0.0 10252428
16:00+27ю34294 0.0 10242616
19:00+23ююв26441 0.0 1024135
22:00+17ююз23561 0.0 102532
14 мая, пт
пт1401:00+15ю22625 0.0 102427
04:00+14ю226716 0.0 102427
07:00+18ююз276186 0.1 1024222
10:00+24ю464447 0.6 1023766
13:00+28ююз58305 0.0 10212112
16:00+28юз5103099 0.0 10202499
19:00+24ююз410445 0.0 1019462
22:00+18ююз246892 0.0 102068
15 мая, сб
сб1501:00+16юз297470 0.0 1020179
04:00+14зюз2380100 0.0 102049
07:00+18юз2370100 0.0 1020198
10:00+23юз245199 0.0 1020798
13:00+28юз5836100 0.0 10181743
16:00+27юз4934100 0.0 10181349
19:00+24юз4104461 0.0 1017524
22:00+18ююз31363100 0.0 1017356
16 мая, вс
вс1601:00+17ююз3116398 0.0 1017266
04:00+15ююз26685 0.0 1017113
07:00+19ююз311535 0.0 1016371
10:00+25юз510331 0.0 1015905
13:00+29юз713259 0.0 10142927
16:00+28юз61331100 0.0 10133105
19:00+25юз4104522 0.0 1013787
22:00+19юз2106576 0.1 1013205
17 мая, пн
пн1701:00+17з2683100 0.4 1014135
04:00+16юз51189100 2.0 1015452
07:00+17юз3885100 0.9 1015445
10:00+21зюз57664 2.3 10151208
13:00+24з58417 0.2 10142355
16:00+24з584280 0.2 10142409
19:00+19з496682 0.2 1015501
22:00+16з277822 0.2 1016168